Regional Weather Roundup
Issued by NWS Newport/Morehead, NC

Current Version | Previous Version | Text Only | Print | Product List | Glossary Off
Versions: 1 2 3 4 5 6 7 8 9 10 11 12 13 14 15 16 17 18 19 20 21 22 23 24 25 26 27 28 29 30 31 32 33 34 35 36 37 38 39 40 41 42 43 44 45 46 47 48 49 50
000 ASUS42 KMHX 140525 RWRMHX WEATHER ROUNDUP FOR EASTERN NORTH CAROLINA NATIONAL WEATHER SERVICE NEWPORT/MOREHEAD CITY NC 1200 AM EST SUN FEB 14 2016 NOTE: "FAIR" INDICATES FEW OR NO CLOUDS BELOW 12,000 FEET WITH NO SIGNIFICANT WEATHER AND/OR OBSTRUCTIONS TO VISIBILITY NCZ015>017-031-032-045>047-102-103-140600- NORTH COAST CITY SKY/WX TMP DP RH WIND PRES REMARKS EDENTON CLEAR 23 2 39 N13 30.45R WCI 12 ELIZABETH CITY CLEAR 21 3 45 N14 30.44R WCI 8 KITTY HAWK CLEAR 23 2 40 NW9G17 30.41R MANTEO CLEAR 24 7 48 N14G24 30.42S WCI 12 $$ NCZ045>047-081-094-103-104-140600- CENTRAL COAST CITY SKY/WX TMP DP RH WIND PRES REMARKS FRISCO CLEAR 29 3 33 NW10G20 30.39S WCI 20 SWANQUARTER N/A 23 N/A N/A NW6G12 30.39S $$ NCZ095-097-098-100-101-140600- SOUTHERN COAST CITY SKY/WX TMP DP RH WIND PRES REMARKS BEAUFORT CLEAR 27 4 37 N13 30.42S WCI 16 CEDAR ISLAND N/A 28 N/A N/A NW20G31 30.44S WCI 15 JACKSONVILLE CLEAR 26 6 42 N9 30.41F PINEY ISLAND CLEAR N/A N/A N/A N18 30.40F WILMINGTON CLEAR 28 5 37 N12 30.41F WCI 18 $$ NCZ011>013-027>030-043-044-078>080-089-090>093-098-140600- COASTAL PLAIN CITY SKY/WX TMP DP RH WIND PRES REMARKS AHOSKIE CLEAR 19 1 44 N6 30.46R CLINTON CLEAR 26 7 43 N6 30.42F ELIZABETHTOWN CLEAR 26 6 43 NE6 30.40F GOLDSBORO CLEAR 25 -2 30 NW8 30.42S GREENVILLE CLEAR 25 3 39 N6 30.44S HAVELOCK CLEAR 27 2 34 N20 30.42F WCI 13 KENANSVILLE CLEAR 24 4 42 N9 30.43S KINSTON CLEAR 25 1 35 N12G17 30.44S WCI 14 NEW BERN CLEAR 26 3 37 N12 30.43F WCI 16 RICHLANDS CLEAR 25 3 39 N6 30.42S ROCKY MOUNT CLEAR 23 -2 33 N10 30.44F WCI 12 WASHINGTON CLEAR 23 2 41 NW3 30.43S WHITEVILLE CLEAR 29 4 35 NE5 30.40F $$ AMZ130-135-150-152-154-156-158-170-250-252-270-ANZ085-086-088-633-658-670-140600- MARINE OBSERVATIONS STATION/POSITION TIME TEMP WIND PRES WAVE SWELL AIR SEA DIR/SP/G HT/PER HT/PER (UTC) (F) (DEG/KT/KT) (MB) (FT/S) (FT/S) CHESAPEAKE LIGHT 0500 21 340/ 30/ 35 1030.3 64 E VA BEACH 0450 26 50 330/ 25/ 31 1028.1 9/ 8 DUCK 0500 24 340/ 20/ 23 1029.2 2 E DUCK 0511 42 N/A 5/ 6 OREGON INLET 0500 25 38 320/ 13/ 17 1029.6 13E OREGON INLT 0500 45 N/A 7/ 7 HATTERAS CG 0400 30 41 320/ 22/ 26 1028.8 DIAMOND BUOY 0450 34 72 340/ 21/ 29 1028.1 5/ 5 2/10 CAPE LOOKOUT NOT AVBL BEAUFORT LAB 0400 30 43 360/ 15/ 19 1028.9 30 SE NEW RVR IN 0508 35 61 1028.1 30 SE NEW RVR IN 0425 61 N/A 5/ 5 27 SE WRIGHTSVLE 0508 36 59 20/ 17/ 27 1027.4 5 SE WRIGHTSVLE 0408 34 50 20/ 23/ 29 1029.3 225 S CAPE HAT 0450 48 68 340/ 19/ 27 N/A 10/ 8 41 SE CHARLESTON 0450 46 66 30/ 14/ 19 1027.2 3/ 5 2/10 $$

USA.gov is the U.S. government's official web portal to all federal, state and local government web resources and services.